Location: Malvern Link
(52.1333°N, 2.3000°W)
Time: 16:07:40
(UTC+00:00)

SO-50 - Pass Details

Date: 03 July 2022
Orbit: 585 x 698 km, 64.6° (Epoch: 11 August)

Event Time Altitude Azimuth Distance (km) Brightness Sun altitude
Rises 02:47:37 0° 271° (W) 3,010 ? -7.7°
Reaches altitude 10° 02:50:18 10° 285° (WNW) 2,116 ? -7.5°
Maximum altitude 02:54:16 25° 340° (NNW) 1,391 ? -7.1°
Drops below altitude 10° 02:58:19 10° 35° (NE) 2,160 ? -6.7°
Sets 03:01:05 0° 49° (NE) 3,086 ? -6.5°
